KINEIS-3A

Last updated on Wed Oct 22 2025 00:02:42 GMT+0000 (Coordinated Universal Time)

1 61223U 24172D 25294.55553822 .00004379 00000+0 69901-3 0 9997 2 61223 98.0291 22.3899 0003108 123.1572 236.9934 14.72390601 57664
UTC large
Height (km)
Speed (km/s)
/
Latitude / Longitude
Inclination (degrees)
Orbital Period (minutes)
Azimuth
Elevation
Range (km)
Doppler Factor

Next 0 passes for location: London (51.5072 / 0.1276)

Sorry there are no passes over London.